Location: Heiligenberg
(48.5381°N, 7.3897°E)
Time: 21:05:50
(UTC+00:00)

ATLAS 5 CENTAUR R/B - Pass Details

Date: 26 May 2022
Orbit: 342 x 13895 km, 60.8° (Epoch: 01 July)

Event Time Altitude Azimuth Distance (km) Brightness Sun altitude
Rises 00:03:31 0° 315° (NW) 8,965 8.5 -19.9°
Reaches altitude 10° 00:11:45 10° 314° (NW) 5,944 7.4 -19.7°
Maximum altitude 00:23:56 56° 241° (WSW) 1,196 3.2 -19.2°
Enters shadow 00:25:43 36° 181° (S) 1,258 3.1 -19.2°
